Volver al catálogo

NOAA 16 DEB

ActivoSSO
NORAD 41297·DEBRIS·🇺🇸 United States

Lanzado Sep 21, 2000 desde Vandenberg Space Force Base

Loading…

Próximos Pases (próximas 24 horas)

TLE

ActualizadoSource: Space-Track

Época: Sep 14, 2026, 09:47 UTC

1 41297U 00055GZ  26257.40793033  .00002530  00000-0  12679-2 0  9991
2 41297  98.9546 322.5232 0063542 159.0526 201.3272 14.16498546548656

Sigue NOAA 16 DEB en tiempo real con AllMySat

Download on the App Store